Temp
56 56 56 56 56 56 56 56 57 58 57 58 58 59 59 59 58 53 51 56 57 55 61 70 72 64 64 58 54 59 58 58 54 49 48 47 47 49 47 49 49 46 43 42 42 39 39 61 61 53 54 55 61 60
56 56 56 56 56 56 56 56 56 56 57 57 58 59 58 58 58 57 48 61 63 56 61 68 73 74 74 70 61 56 58 55 56 51 49 49 49 47 44 43 52 46 49 45 46 46 52 54 55 56 54 56 55 59
57 55 55 55 55 55 55 56 56 57 57 57 57 58 58 58 58 56 49 51 55 56 61 63 67 72 74 72 68 59 56 61 58 57 52 50 50 48 44 45 47 50 51 47 48 50 51 54 56 58 59 59 60 62
56 55 55 55 55 55 55 56 56 56 57 57 57 58 58 57 57 57 48 53 53 56 53 61 73 72 70 74 72 68 65 63 61 57 51 48 49 53 47 51 48 52 51 47 45 48 50 56 57 59 63 63 65 62
56 55 55 55 55 55 55 55 56 56 57 57 57 57 57 57 56 54 51 53 57 56 54 58 66 66 70 71 71 68 62 58 54 54 50 50 50 52 49 49 47 52 51 46 46 52 52 53 58 59 59 61 61 61
55 54 54 54 54 55 55 55 55 56 56 56 57 57 57 56 56 48 51 56 59 61 53 53 62 63 67 70 68 63 61 57 55 53 51 52 56 52 46 43 54 56 56 55 53 55 55 56 59 61 59 63 64 61
55 54 54 54 54 54 55 55 55 55 55 56 56 56 56 55 49 50 54 58 55 55 55 54 54 62 68 65 61 61 59 57 56 51 51 51 52 51 44 42 54 56 57 57 59 58 53 57 56 60 61 65 63 64
55 54 54 54 54 54 54 55 55 55 55 56 56 56 55 55 52 52 59 58 55 57 58 51 53 57 61 56 55 56 55 54 54 53 51 50 50 48 43 50 55 58 58 57 58 59 58 57 58 59 62 64 62 60
55 54 54 54 54 54 54 54 55 55 55 56 56 56 52 49 50 57 64 58 58 59 52 51 50 49 60 56 55 56 54 49 53 51 50 51 44 40 50 52 53 57 56 58 58 59 60 60 60 62 62 63 62 59
55 54 54 54 54 54 54 54 55 55 54 56 52 52 50 56 63 64 60 57 57 56 54 52 53 52 58 53 53 53 51 48 45 51 53 47 45 51 54 57 58 60 60 60 56 56 56 55 59 61 63 61 60 60
54 54 54 54 54 54 54 54 54 54 56 54 52 51 55 61 59 55 52 50 50 49 51 54 54 54 59 55 52 53 49 49 45 49 50 43 43 52 56 56 57 59 61 62 61 61 61 61 60 60 60 61 60 59
53 54 54 54 54 54 54 54 54 54 54 52 52 53 55 55 52 50 48 50 49 49 54 53 55 57 57 58 53 52 51 50 46 53 49 41 47 53 56 58 59 58 63 64 64 64 63 64 62 59 59 58 58 57
53 53 53 53 54 54 54 54 54 54 53 54 53 52 49 51 42 46 44 46 47 54 56 53 52 56 56 56 53 52 50 48 53 49 42 46 51 54 55 58 58 59 62 63 63 62 62 60 61 61 57 58 58 57
53 53 53 53 53 54 54 54 54 53 51 51 49 38 45 43 47 48 50 51 58 59 57 54 50 53 53 53 51 51 53 53 48 41 47 49 52 55 56 57 58 59 61 61 61 60 59 58 58 58 58 57 57 56
53 53 53 52 53 53 54 54 54 54 52 49 49 40 44 49 51 56 58 57 60 61 60 55 53 52 50 53 52 52 50 48 49 47 50 52 54 55 55 57 58 58 59 58 58 57 58 58 57 56 56 55 55 55
53 52 50 54 55 54 54 53 54 53 52 50 48 47 48 48 52 55 55 52 53 53 53 58 50 49 51 52 51 50 50 48 51 52 53 54 55 55 56 57 58 58 57 58 57 56 57 56 54 53 54 55 55 54
52 49 54 54 54 54 53 51 53 50 49 48 46 48 48 50 51 54 52 52 53 52 49 49 49 53 55 51 50 53 51 52 54 53 54 57 57 55 56 56 56 56 55 54 53 54 53 53 55 56 51 52 51 55
49 53 54 53 53 53 52 51 49 48 45 47 45 46 49 52 52 55 53 53 53 51 50 49 50 50 51 52 51 56 53 53 54 55 57 55 56 56 58 56 56 56 55 54 53 52 52 55 55 53 54 54 54 55
51 52 53 53 53 51 48 49 49 44 47 49 47 49 48 51 56 57 55 54 55 54 51 50 48 48 52 52 50 50 50 52 54 55 56 57 56 56 56 56 55 53 53 51 50 49 49 50 54 54 53 53 53 51
52 53 53 53 53 49 47 47 52 47 43 46 48 48 49 51 55 57 57 53 51 51 49 48 50 52 50 51 53 53 53 52 54 53 53 54 56 57 56 55 53 50 50 49 49 49 49 48 49 50 52 51 52 50
52 53 53 52 51 49 48 48 46 48 49 49 54 53 51 52 53 54 55 53 49 48 47 49 52 54 55 55 54 53 52 52 53 53 53 53 55 55 55 55 54 51 50 48 48 48 48 49 50 50 50 50 50 52
52 54 51 51 48 50 47 50 49 51 48 51 52 53 51 49 50 52 55 51 50 51 53 52 54 57 55 55 55 55 56 54 54 54 52 52 53 54 55 55 54 50 50 50 50 50 50 51 51 51 51 51 53 53
52 52 50 50 46 44 42 51 48 50 47 51 52 50 50 49 53 56 52 55 55 56 57 57 57 57 59 57 55 56 56 57 55 55 56 54 55 54 53 53 55 52 50 50 52 51 51 51 51 52 51 53 52 50
52 49 47 46 46 42 50 49 53 51 53 49 52 51 53 50 54 51 48 52 53 54 53 53 54 53 53 52 52 52 52 52 53 54 55 55 53 53 56 59 55 54 56 54 53 53 52 53 51 52 52 55 52 52
43 43 44 37 48 46 49 50 51 48 50 51 51 50 49 50 48 49 48 51 51 51 53 53 55 54 53 53 53 54 58 56 55 53 54 57 57 55 54 54 54 55 57 55 54 53 53 52 53 54 54 53 53 53
37 44 40 48 49 48 48 48 50 49 50 50 50 48 49 47 46 47 48 50 52 53 53 53 54 53 53 54 53 53 55 57 56 54 53 57 59 58 55 52 52 54 57 59 56 57 58 57 55 56 56 55 50 55
38 44 50 52 52 52 51 53 53 49 50 51 49 49 48 47 47 50 52 52 52 55 55 56 57 56 55 55 57 59 59 60 57 57 57 57 58 61 62 57 53 56 59 61 63 63 59 59 57 58 56 55 57 57
48 52 48 49 48 50 50 49 51 51 50 52 51 49 50 49 47 52 54 57 57 57 57 59 57 57 55 55 61 61 61 59 59 57 57 57 57 61 60 59 61 54 59 59 62 61 60 60 59 61 61 57 56 57
47 53 54 48 50 51 50 51 51 51 53 52 50 50 51 52 55 56 58 63 60 57 55 56 57 61 60 62 62 63 62 60 56 54 53 52 53 56 56 56 57 55 55 56 51 53 58 56 57 58 57 56 56 59
51 53 50 53 50 50 51 52 53 55 54 54 55 54 54 53 57 60 62 63 61 58 57 58 59 62 58 57 57 58 59 59 60 58 57 55 56 57 57 59 58 57 57 57 56 53 48 52 51 55 57 56 54 54
53 51 51 53 52 53 55 54 56 58 58 56 58 54 53 53 58 60 61 62 63 62 59 59 59 62 59 57 59 62 58 64 61 64 62 63 65 60 59 60 59 57 57 57 57 56 55 56 55 58 58 57 56 54
52 52 53 53 52 55 55 54 54 52 54 54 53 53 53 55 54 58 62 63 60 58 58 62 62 60 62 62 62 61 56 60 58 63 61 61 60 61 61 59 59 59 58 58 56 57 57 56 55 56 56 57 56 56
52 54 56 55 53 52 55 57 55 52 52 50 51 51 52 52 53 59 64 67 65 61 60 61 61 62 61 61 59 57 53 55 48 46 46 47 50 55 59 59 60 62 62 60 57 60 56 57 56 59 57 56 57 59
MSLP
1021.21 1021.07 1020.92 1020.65 1020.33 1020.04 1019.83 1019.50 1019.19 1018.77 1018.46 1018.16 1017.80 1017.48 1017.35 1017.17 1016.97 1017.03 1015.98 1015.34 1015.33 1014.36 1011.81 1010.08 1009.15 1009.11 1009.20 1009.89 1010.90 1011.12 1011.58 1011.79 1012.51 1013.87 1014.51 1014.53 1014.22 1013.93 1014.03 1013.87 1014.07 1014.94 1015.77 1016.39 1016.59 1016.52 1016.00 1014.93 1014.36 1014.93 1015.85 1015.53 1014.98 1015.42
1020.77 1020.68 1020.44 1020.19 1019.92 1019.69 1019.39 1019.03 1018.70 1018.32 1017.99 1017.76 1017.34 1017.10 1017.01 1016.85 1016.76 1016.75 1016.36 1014.57 1014.71 1014.72 1012.08 1010.25 1009.07 1008.59 1008.67 1009.25 1010.29 1011.23 1012.08 1012.64 1013.18 1014.34 1014.91 1014.88 1014.89 1014.63 1014.98 1015.05 1014.45 1015.31 1015.44 1016.00 1016.76 1016.60 1016.08 1015.71 1015.31 1015.56 1015.83 1015.75 1015.65 1015.48
1020.35 1020.26 1020.08 1019.82 1019.54 1019.32 1018.97 1018.57 1018.18 1017.87 1017.53 1017.29 1016.91 1016.68 1016.62 1016.53 1016.42 1016.54 1016.30 1015.49 1014.67 1013.91 1011.88 1010.48 1009.19 1009.05 1008.58 1008.99 1009.33 1010.86 1011.99 1011.84 1012.73 1013.17 1014.50 1015.11 1015.23 1015.05 1015.44 1015.32 1015.17 1015.11 1015.25 1016.05 1016.58 1016.73 1016.47 1016.28 1015.93 1015.52 1015.17 1015.13 1015.03 1015.30
1019.96 1019.89 1019.67 1019.43 1019.11 1018.85 1018.51 1018.20 1017.83 1017.39 1016.98 1016.66 1016.44 1016.25 1016.13 1016.09 1016.05 1016.06 1016.16 1015.33 1015.18 1014.30 1012.90 1010.56 1009.05 1009.05 1008.91 1008.91 1009.53 1010.16 1011.03 1011.54 1012.30 1013.14 1014.46 1015.29 1015.50 1014.71 1015.23 1014.83 1015.11 1015.03 1015.23 1016.04 1016.78 1016.69 1016.67 1016.16 1015.71 1014.86 1014.48 1014.69 1014.79 1015.75
1019.59 1019.54 1019.29 1019.10 1018.74 1018.38 1018.11 1017.77 1017.34 1016.98 1016.59 1016.17 1015.92 1015.78 1015.71 1015.60 1015.62 1015.64 1015.63 1014.68 1014.30 1014.62 1013.22 1011.34 1009.84 1009.43 1009.36 1009.46 1010.05 1010.50 1011.27 1012.04 1013.24 1014.02 1014.92 1015.42 1014.85 1014.96 1015.06 1015.21 1015.34 1014.66 1014.68 1015.63 1015.73 1015.40 1015.59 1015.38 1014.77 1014.70 1014.70 1015.06 1015.52 1015.96
1019.13 1019.01 1018.98 1018.67 1018.41 1018.07 1017.68 1017.33 1016.90 1016.51 1016.25 1015.85 1015.49 1015.38 1015.36 1015.27 1015.29 1015.60 1014.81 1013.45 1013.56 1013.70 1013.58 1011.90 1010.43 1010.16 1009.96 1009.85 1010.61 1011.11 1011.67 1012.34 1013.14 1014.19 1014.66 1014.68 1014.27 1014.68 1015.60 1015.80 1014.87 1014.07 1013.86 1014.04 1014.50 1014.80 1014.90 1014.67 1014.65 1014.72 1014.79 1014.88 1014.90 1015.65
1018.78 1018.70 1018.50 1018.25 1018.07 1017.76 1017.39 1016.99 1016.59 1016.16 1015.80 1015.50 1015.15 1014.98 1014.93 1015.09 1015.26 1014.83 1013.81 1013.00 1013.04 1013.48 1013.16 1012.21 1011.25 1010.61 1010.18 1010.64 1011.45 1011.76 1012.01 1012.56 1013.20 1014.11 1014.67 1014.82 1014.72 1014.82 1015.59 1015.68 1014.43 1013.90 1013.64 1013.60 1013.74 1014.34 1014.84 1014.83 1014.72 1014.58 1014.72 1015.07 1015.13 1015.43
1018.41 1018.31 1018.06 1017.89 1017.69 1017.41 1017.05 1016.67 1016.28 1015.87 1015.26 1015.01 1014.75 1014.61 1014.58 1014.68 1014.68 1013.87 1011.48 1011.13 1012.32 1012.47 1012.27 1012.15 1011.79 1011.26 1010.68 1011.70 1012.47 1012.41 1012.93 1013.19 1013.47 1013.93 1014.37 1014.87 1014.94 1015.09 1015.34 1014.47 1013.69 1013.40 1013.49 1013.74 1013.68 1013.69 1013.85 1013.93 1014.80 1014.83 1014.84 1014.82 1015.19 1015.58
1018.01 1017.82 1017.77 1017.56 1017.37 1017.11 1016.68 1016.35 1015.93 1015.45 1014.83 1014.48 1014.38 1014.21 1014.20 1014.13 1013.64 1011.72 1010.77 1011.18 1011.25 1011.97 1012.19 1012.04 1011.76 1011.61 1010.95 1011.80 1012.46 1012.65 1012.95 1013.88 1013.84 1014.06 1014.16 1014.77 1015.29 1015.15 1014.06 1013.80 1013.31 1013.17 1013.29 1013.48 1013.58 1013.56 1013.61 1013.88 1013.92 1014.44 1014.50 1014.60 1015.01 1015.85
1017.58 1017.49 1017.37 1017.22 1017.10 1016.80 1016.42 1016.10 1015.64 1015.02 1014.43 1014.17 1014.18 1014.03 1013.60 1012.20 1011.21 1010.83 1011.04 1011.35 1011.43 1011.56 1011.82 1011.98 1011.48 1011.19 1011.12 1011.98 1012.61 1013.19 1013.46 1013.85 1014.27 1013.77 1013.63 1014.05 1014.34 1013.26 1012.76 1012.61 1012.47 1012.57 1012.67 1012.79 1013.44 1013.47 1013.43 1013.63 1013.80 1014.00 1014.27 1014.66 1015.06 1015.59
1017.19 1017.11 1016.99 1016.91 1016.73 1016.52 1016.31 1015.96 1015.42 1014.61 1013.96 1014.16 1014.27 1013.84 1012.71 1011.60 1011.45 1011.75 1011.94 1012.13 1011.93 1011.90 1011.52 1011.09 1010.99 1010.96 1010.61 1011.22 1012.34 1012.59 1013.14 1013.53 1013.85 1013.55 1013.69 1014.04 1013.70 1012.17 1011.73 1011.98 1011.93 1012.14 1012.11 1012.33 1012.46 1012.69 1012.91 1013.19 1013.67 1014.01 1014.61 1015.01 1015.38 1015.75
1016.83 1016.70 1016.74 1016.51 1016.44 1016.40 1016.15 1015.88 1015.38 1014.73 1014.74 1014.98 1014.90 1014.18 1013.49 1012.42 1012.26 1012.28 1012.08 1011.79 1011.47 1011.21 1010.46 1010.32 1010.36 1010.31 1010.34 1010.37 1011.55 1012.20 1012.57 1013.03 1013.18 1012.81 1013.47 1013.52 1012.18 1011.20 1011.26 1011.58 1011.69 1011.83 1011.74 1011.95 1012.07 1012.43 1012.70 1013.08 1013.37 1014.09 1014.91 1015.40 1015.68 1016.06
1016.49 1016.42 1016.30 1016.24 1016.20 1016.15 1015.99 1015.84 1015.39 1015.14 1014.58 1014.58 1014.69 1014.38 1014.10 1013.44 1012.87 1012.04 1011.20 1010.75 1010.30 1009.60 1009.35 1009.56 1010.13 1009.96 1010.19 1010.23 1011.12 1011.68 1012.16 1012.50 1012.11 1012.79 1012.73 1012.22 1011.41 1011.06 1011.11 1011.32 1011.60 1011.66 1011.65 1011.80 1012.10 1012.50 1013.00 1013.54 1013.84 1014.34 1015.28 1015.61 1016.01 1016.50
1016.21 1016.07 1016.02 1015.96 1015.82 1015.79 1015.82 1015.54 1015.19 1014.79 1014.64 1014.64 1014.80 1014.93 1014.62 1013.46 1011.90 1010.82 1010.20 1009.72 1008.98 1008.69 1008.79 1009.15 1009.98 1010.03 1010.08 1010.39 1010.80 1011.37 1011.41 1011.44 1011.85 1011.87 1011.49 1011.21 1011.11 1011.02 1010.92 1011.10 1011.54 1011.85 1011.94 1012.10 1012.56 1012.96 1013.45 1013.92 1014.53 1014.99 1015.36 1015.73 1016.24 1016.72
1015.93 1015.94 1015.85 1015.52 1015.29 1015.31 1015.31 1015.23 1015.06 1014.74 1014.70 1014.70 1014.66 1014.21 1013.62 1012.34 1011.27 1010.62 1009.97 1009.50 1008.78 1008.47 1008.60 1009.12 1009.45 1009.77 1010.18 1010.26 1010.20 1010.50 1010.82 1010.84 1010.47 1010.27 1010.36 1009.98 1010.23 1010.53 1010.91 1011.24 1011.49 1011.76 1012.08 1012.41 1012.70 1013.17 1013.60 1014.05 1014.65 1015.31 1015.68 1015.98 1016.46 1017.11
1015.88 1015.63 1015.37 1015.05 1014.94 1014.82 1015.01 1015.07 1014.84 1014.70 1014.61 1014.55 1014.23 1013.53 1012.50 1012.06 1011.20 1010.38 1010.05 1009.84 1009.56 1009.19 1008.87 1009.01 1009.81 1009.70 1009.66 1009.36 1009.62 1009.53 1009.69 1009.70 1009.69 1009.46 1009.10 1009.31 1010.13 1010.37 1010.72 1011.12 1011.44 1011.61 1011.98 1012.29 1012.74 1013.21 1013.52 1013.97 1014.57 1015.28 1015.81 1016.21 1016.81 1017.30
1015.71 1015.35 1014.78 1014.92 1014.97 1015.02 1015.12 1015.12 1014.78 1014.73 1014.57 1014.15 1013.44 1012.84 1012.51 1012.01 1011.50 1010.55 1010.27 1010.17 1009.76 1009.70 1010.17 1010.39 1009.82 1008.65 1008.42 1008.72 1008.95 1008.69 1008.79 1008.93 1008.67 1008.91 1009.01 1009.02 1009.64 1010.26 1010.79 1011.18 1011.53 1011.91 1012.37 1012.67 1012.98 1013.39 1013.94 1014.45 1014.84 1015.27 1016.01 1016.56 1016.66 1016.86
1015.44 1014.99 1014.97 1015.02 1015.06 1015.06 1015.10 1015.08 1014.99 1014.60 1014.18 1013.53 1013.21 1012.34 1011.94 1011.23 1010.77 1010.66 1010.50 1010.28 1010.13 1010.75 1011.04 1011.10 1011.27 1009.00 1008.30 1008.23 1008.56 1008.32 1008.51 1008.46 1008.76 1008.86 1008.93 1009.35 1009.82 1010.27 1010.68 1011.24 1011.70 1012.14 1012.63 1013.05 1013.34 1013.81 1014.20 1014.69 1015.10 1015.56 1015.91 1016.27 1016.60 1016.87
1015.30 1015.19 1015.08 1015.11 1015.16 1015.22 1015.13 1015.08 1014.93 1014.11 1013.19 1012.76 1012.15 1011.55 1011.32 1010.75 1010.21 1009.74 1010.09 1010.26 1009.98 1010.57 1011.17 1011.79 1011.55 1009.79 1008.40 1008.12 1008.29 1008.45 1008.46 1008.57 1008.82 1009.16 1009.67 1009.88 1010.39 1010.95 1011.45 1011.57 1011.85 1012.36 1012.87 1013.39 1013.77 1014.20 1014.63 1014.74 1014.95 1015.51 1015.90 1016.29 1016.79 1017.12
1015.10 1015.05 1015.06 1015.14 1015.23 1015.12 1014.73 1014.39 1014.18 1013.70 1012.60 1011.42 1010.84 1010.50 1010.34 1009.84 1009.49 1009.51 1009.76 1010.16 1010.38 1010.81 1011.27 1011.51 1010.54 1009.19 1009.06 1008.79 1008.56 1008.84 1008.78 1008.87 1009.02 1009.70 1010.53 1010.76 1010.63 1010.74 1011.07 1011.77 1012.19 1012.73 1013.14 1013.69 1014.18 1014.47 1015.00 1015.39 1015.54 1015.65 1015.93 1016.40 1016.99 1017.19
1014.83 1014.50 1014.90 1015.14 1015.07 1015.03 1014.54 1013.52 1013.14 1012.43 1011.21 1010.32 1009.30 1009.45 1009.34 1008.92 1008.94 1008.99 1009.11 1009.33 1010.20 1010.02 1010.38 1010.06 1009.68 1008.89 1008.68 1008.90 1009.75 1009.56 1009.62 1009.32 1009.85 1010.40 1010.61 1010.97 1010.71 1010.67 1011.38 1012.20 1012.23 1012.81 1013.36 1014.01 1014.50 1014.95 1015.16 1015.29 1015.51 1015.73 1016.09 1016.24 1016.55 1016.72
1014.41 1014.43 1014.68 1014.88 1014.59 1014.24 1013.70 1012.38 1011.70 1010.73 1010.43 1009.21 1008.63 1008.41 1008.20 1008.10 1008.05 1007.92 1007.95 1008.73 1008.71 1008.44 1008.41 1008.20 1007.58 1007.71 1008.31 1009.08 1009.78 1009.21 1009.14 1009.61 1009.58 1009.61 1009.79 1010.27 1010.79 1011.32 1011.72 1011.88 1012.02 1012.72 1013.22 1013.68 1014.19 1014.68 1015.15 1015.07 1015.10 1015.44 1015.83 1015.86 1016.07 1016.44
1014.49 1014.43 1014.27 1014.22 1014.12 1013.33 1012.20 1011.00 1010.65 1009.54 1009.07 1007.95 1007.60 1007.72 1007.61 1007.34 1006.84 1006.59 1007.26 1007.18 1007.07 1006.64 1006.66 1006.85 1006.63 1006.56 1007.32 1007.31 1007.68 1007.90 1007.60 1008.08 1008.89 1009.50 1009.64 1009.94 1010.43 1011.04 1011.51 1011.41 1011.82 1012.37 1012.91 1013.40 1013.68 1014.19 1014.62 1014.45 1014.76 1015.10 1015.56 1015.71 1016.02 1016.48
1014.28 1013.95 1013.45 1013.18 1013.01 1012.11 1010.86 1009.97 1009.06 1008.51 1007.83 1007.51 1007.25 1007.06 1006.94 1006.85 1006.47 1006.70 1006.75 1006.35 1006.03 1006.09 1006.47 1006.45 1006.37 1006.42 1006.90 1007.89 1008.08 1007.85 1007.78 1008.01 1008.71 1009.21 1009.17 1009.66 1010.29 1010.78 1011.14 1011.16 1011.41 1011.76 1012.12 1012.63 1013.18 1013.61 1013.85 1014.05 1014.29 1014.74 1015.11 1015.44 1015.89 1016.20
1013.99 1013.37 1012.97 1012.16 1011.69 1011.23 1009.74 1008.54 1008.02 1007.86 1007.51 1007.24 1007.17 1006.92 1007.04 1006.82 1006.91 1006.77 1006.53 1006.16 1006.07 1006.18 1006.03 1006.06 1006.18 1006.58 1006.97 1007.35 1007.56 1007.31 1007.34 1007.95 1008.49 1008.99 1009.04 1008.58 1009.24 1010.08 1010.69 1011.03 1011.25 1011.50 1011.75 1012.34 1012.88 1013.20 1013.41 1013.66 1013.92 1014.36 1014.84 1015.20 1015.61 1015.80
1012.99 1012.13 1011.78 1010.55 1009.86 1009.55 1008.75 1008.20 1007.52 1007.24 1007.18 1006.95 1006.67 1006.98 1007.12 1007.14 1006.99 1006.78 1006.54 1006.18 1006.07 1005.98 1005.82 1005.91 1006.01 1006.34 1006.93 1007.06 1007.17 1007.05 1007.17 1007.63 1008.17 1008.65 1009.01 1008.97 1009.04 1009.58 1010.13 1010.91 1011.34 1011.35 1011.29 1011.50 1011.95 1012.53 1013.03 1013.27 1013.55 1013.93 1014.23 1014.49 1014.79 1015.05
1011.95 1010.79 1010.02 1009.36 1009.14 1008.69 1008.32 1007.60 1007.16 1007.07 1006.90 1006.55 1006.55 1006.77 1007.00 1006.92 1006.84 1006.88 1006.20 1005.80 1005.85 1005.61 1005.61 1005.93 1005.68 1005.79 1006.73 1006.95 1006.69 1006.58 1007.04 1007.40 1007.58 1007.92 1008.14 1008.67 1008.92 1009.06 1009.49 1010.13 1010.68 1010.56 1010.45 1010.64 1011.08 1011.54 1012.29 1012.69 1013.00 1013.33 1013.69 1013.94 1014.00 1014.13
1010.75 1009.52 1009.02 1008.74 1008.52 1008.12 1008.01 1007.68 1007.27 1006.99 1006.78 1006.43 1006.59 1006.72 1006.76 1006.80 1006.78 1006.23 1005.76 1005.24 1005.36 1005.42 1005.49 1005.65 1005.93 1006.33 1006.62 1006.53 1006.32 1006.59 1007.03 1007.36 1007.63 1007.94 1008.33 1008.68 1008.85 1008.98 1009.18 1009.46 1009.74 1010.05 1010.25 1010.30 1010.72 1011.08 1011.48 1011.90 1012.46 1012.74 1013.05 1013.41 1013.47 1013.65
1009.78 1008.73 1008.33 1008.21 1008.03 1007.73 1007.46 1007.36 1006.97 1007.15 1006.85 1006.70 1006.63 1006.54 1006.63 1006.51 1005.97 1005.71 1005.21 1004.80 1004.72 1005.21 1005.54 1005.69 1005.95 1005.94 1006.12 1006.18 1006.42 1006.69 1007.08 1007.59 1008.11 1008.61 1008.88 1009.27 1009.58 1009.55 1009.45 1009.51 1009.84 1010.08 1010.36 1010.70 1010.83 1011.14 1011.51 1011.72 1012.00 1012.44 1012.74 1013.15 1013.22 1013.12
1008.53 1007.86 1007.99 1007.58 1007.51 1007.24 1007.16 1007.22 1007.15 1006.87 1006.68 1006.58 1006.60 1006.60 1006.61 1006.34 1005.46 1004.93 1004.90 1004.75 1005.09 1005.49 1005.61 1005.69 1005.89 1006.14 1006.58 1006.79 1007.21 1007.57 1007.41 1007.41 1007.64 1008.26 1008.70 1009.24 1009.55 1009.23 1009.37 1009.52 1009.67 1009.83 1010.09 1010.52 1010.95 1011.39 1011.42 1011.70 1012.12 1012.33 1012.41 1012.67 1012.92 1013.05
1007.41 1007.29 1007.17 1007.09 1007.19 1007.08 1007.03 1007.12 1006.98 1006.71 1006.62 1006.59 1006.50 1006.73 1006.52 1006.09 1005.28 1004.73 1004.67 1004.72 1004.91 1005.38 1005.81 1006.17 1006.39 1006.42 1006.65 1007.12 1007.33 1007.42 1008.04 1007.32 1007.43 1007.52 1007.84 1008.18 1008.41 1008.89 1008.90 1008.88 1009.13 1009.55 1009.96 1010.28 1010.64 1010.98 1011.40 1011.82 1012.06 1012.22 1012.37 1012.44 1012.54 1012.61
1007.03 1006.99 1006.87 1006.74 1006.98 1006.78 1007.15 1006.89 1007.11 1007.18 1007.11 1006.97 1007.05 1006.97 1006.67 1006.22 1006.02 1005.39 1004.79 1004.82 1005.25 1005.63 1005.90 1006.08 1006.08 1006.18 1006.07 1006.53 1006.92 1007.08 1007.27 1007.63 1007.54 1007.72 1008.00 1008.25 1008.48 1008.41 1008.42 1008.63 1008.82 1009.07 1009.67 1010.25 1010.69 1011.00 1011.25 1011.43 1011.61 1011.82 1011.97 1012.04 1012.17 1012.47
1006.67 1006.54 1006.47 1006.53 1006.32 1006.57 1006.48 1006.65 1006.82 1007.80 1008.04 1008.33 1008.16 1008.00 1007.58 1007.11 1006.42 1005.61 1004.85 1004.59 1005.00 1005.28 1005.71 1005.89 1005.86 1005.85 1006.12 1006.42 1006.86 1007.44 1007.60 1007.94 1008.03 1007.84 1008.06 1008.27 1008.41 1008.53 1008.68 1008.77 1008.87 1009.05 1009.37 1009.93 1010.17 1010.64 1010.99 1011.23 1011.40 1011.45 1011.55 1011.81 1012.04 1012.21
Wind_Speed
8 10 10 10 11 12 13 14 15 15 14 15 15 12 11 9 7 2 6 5 1 2 7 4 3 4 5 5 5 5 6 7 5 6 2 2 3 2 4 1 6 3 4 1 3 4 1 4 3 7 5 7 5 4
8 8 9 10 11 12 13 14 15 14 13 14 13 11 10 8 6 2 4 3 0 3 7 3 3 2 7 8 7 5 8 4 4 4 1 1 3 3 3 1 4 3 6 5 5 6 3 4 5 5 4 3 2 5
10 8 10 10 11 12 14 14 14 14 14 14 13 11 10 7 6 4 4 4 2 2 5 2 2 3 6 6 5 6 3 4 2 5 5 2 1 4 2 4 3 4 3 4 4 2 1 3 4 6 8 6 3 6
10 9 10 10 11 12 13 14 14 15 14 12 13 11 9 8 7 5 3 1 1 3 2 6 1 6 3 7 6 5 5 4 5 4 3 2 1 2 4 5 5 6 4 5 1 1 2 5 5 5 3 9 14 7
9 9 10 11 12 12 14 13 14 14 14 13 12 11 8 7 7 5 4 5 4 1 2 3 2 1 5 6 8 7 6 4 3 3 3 3 2 3 2 4 2 4 7 5 7 9 6 6 7 3 4 5 5 12
8 8 10 10 12 13 13 13 14 13 14 13 10 9 7 7 4 1 4 1 7 3 2 1 2 3 2 8 7 5 2 3 3 4 3 2 1 5 3 2 5 4 4 7 6 6 4 3 5 3 2 2 5 9
9 9 9 10 11 12 13 13 13 13 12 12 9 8 7 6 1 4 4 3 3 4 2 3 3 3 5 5 3 2 3 1 4 2 1 4 1 5 3 4 6 5 5 4 8 8 2 2 4 6 4 3 7 7
10 9 9 10 11 12 12 13 14 13 12 12 10 8 7 6 7 7 5 13 7 2 2 2 2 3 2 2 1 1 1 3 3 3 2 3 2 3 2 7 6 5 7 5 8 6 5 2 6 7 6 2 6 10
10 9 10 10 10 12 11 13 15 13 14 10 10 9 3 2 2 5 4 10 1 4 3 1 5 5 1 2 1 3 3 1 2 2 3 5 1 4 8 7 3 4 8 9 7 6 4 6 8 7 5 4 8 9
9 9 10 10 10 11 10 13 14 14 12 9 2 1 2 4 7 2 5 4 4 2 1 2 1 3 5 2 1 3 1 3 2 6 2 3 6 6 8 9 8 5 7 9 6 5 1 1 5 6 5 7 6 6
7 8 9 10 9 10 10 12 14 15 3 1 3 2 4 9 3 2 2 2 1 2 2 5 5 3 2 5 5 3 4 2 2 6 6 3 4 7 8 9 8 6 6 7 7 6 7 7 7 6 7 10 9 8
7 7 9 8 9 9 9 10 13 4 1 1 3 4 3 3 1 2 4 3 4 7 3 7 8 5 3 4 4 1 4 2 4 2 3 4 6 5 9 8 8 8 7 6 4 5 4 5 7 9 10 9 8 9
7 7 8 8 9 8 8 8 9 8 6 2 2 4 4 2 0 6 6 4 3 3 4 3 4 5 2 3 3 4 4 5 2 2 5 6 4 3 7 6 6 6 6 4 3 7 8 8 9 14 10 7 9 8
6 7 8 9 10 8 8 7 10 7 1 2 2 1 2 5 6 5 4 4 5 3 3 4 3 5 3 3 4 5 5 3 3 4 6 4 8 7 7 6 8 7 7 6 7 9 10 10 9 9 9 8 9 8
7 9 9 12 14 11 7 7 8 2 1 2 2 5 8 6 4 4 4 4 3 2 3 2 3 4 2 3 3 3 3 6 6 6 5 5 9 9 8 6 8 8 7 6 7 8 9 9 9 7 6 7 8 8
8 11 6 8 2 3 4 5 2 0 1 1 4 4 5 3 5 1 3 2 2 4 2 2 3 5 4 5 5 7 4 6 4 5 4 6 8 7 7 7 8 7 8 7 7 7 8 9 11 10 9 12 11 11
5 3 3 3 3 4 2 1 0 2 3 4 4 4 5 6 5 4 1 3 3 3 3 3 6 8 4 4 3 5 6 5 4 1 2 6 10 8 7 6 6 7 7 6 5 6 5 7 9 11 11 5 7 7
2 1 1 3 3 2 0 0 1 3 6 4 4 5 3 3 2 1 3 2 3 2 2 3 4 4 5 6 4 6 2 1 2 3 6 5 6 7 7 8 7 7 7 6 6 5 6 10 9 5 9 9 7 7
1 3 1 2 1 1 2 2 2 3 6 4 4 5 3 4 4 3 3 2 2 4 5 3 7 6 2 1 3 1 1 1 5 4 4 6 8 7 5 6 6 7 7 6 7 5 5 5 6 7 6 5 4 4
6 6 5 2 0 1 3 3 2 4 4 5 4 4 4 4 3 3 4 3 3 4 4 4 4 3 2 4 1 3 3 2 5 5 4 3 5 9 10 7 5 6 6 7 6 6 5 4 2 4 5 5 4 3
3 3 6 4 2 3 3 3 4 4 4 4 3 4 4 2 5 4 4 5 4 4 4 5 7 4 4 7 5 0 2 3 4 5 4 4 4 5 5 5 8 5 6 5 5 4 4 5 4 4 5 4 5 4
1 6 2 3 2 3 5 5 4 3 4 4 3 5 3 3 4 4 4 4 4 5 5 5 4 4 10 12 10 7 8 8 7 4 4 6 4 5 7 7 7 6 5 5 5 5 5 5 4 4 4 4 7 6
1 2 2 4 4 3 8 2 3 4 3 3 2 2 2 2 4 3 3 4 5 5 5 4 8 6 10 11 3 3 5 7 5 3 3 4 4 3 4 5 6 6 5 4 4 4 5 6 6 5 5 6 6 4
1 3 3 4 6 5 4 4 4 3 3 2 2 2 2 3 2 2 3 3 3 3 2 2 1 4 6 5 2 4 3 4 4 3 4 9 7 6 5 5 4 5 6 5 5 4 5 6 6 5 6 8 6 6
3 4 3 5 4 4 5 3 4 2 3 2 3 2 1 3 1 3 3 3 2 3 3 2 5 3 5 4 3 4 5 6 7 7 4 7 7 5 3 3 4 5 5 5 4 5 4 5 6 6 7 6 8 8
3 4 6 4 3 3 2 4 2 1 2 3 2 2 1 1 1 2 3 2 1 2 3 3 4 4 3 2 4 3 3 5 6 5 3 5 8 7 7 6 4 3 5 6 5 8 7 6 7 8 7 8 11 9
3 5 5 4 3 3 3 3 4 3 4 3 1 2 2 2 1 2 4 2 2 3 1 2 5 5 1 4 2 3 5 6 5 5 4 5 5 6 6 6 5 5 4 6 11 12 12 11 7 8 6 4 6 7
5 4 2 2 2 2 3 3 3 3 3 1 2 1 1 2 4 3 4 3 3 1 2 3 4 4 5 5 5 5 3 3 4 5 5 4 3 4 6 5 5 11 5 6 6 5 8 8 7 7 7 6 5 6
4 4 1 5 4 3 3 2 1 3 3 1 1 1 2 3 3 2 3 4 2 1 2 4 4 4 3 3 4 4 5 5 6 6 6 4 3 2 1 4 5 4 4 4 4 9 8 7 7 6 6 6 4 5
5 3 2 2 2 2 3 4 2 2 1 1 2 2 2 3 4 4 4 1 4 4 3 4 4 5 4 5 4 5 2 4 5 6 7 4 4 3 5 5 5 5 4 5 6 3 4 4 3 2 3 3 2 3
2 1 2 3 2 4 1 2 2 3 2 1 1 2 2 3 4 2 2 3 4 5 5 4 2 2 5 5 5 6 1 4 3 4 6 7 9 4 5 5 5 5 5 6 6 5 5 3 4 5 6 7 8 7
2 2 2 1 3 4 4 3 2 5 4 2 3 3 5 5 4 5 3 4 3 4 5 6 5 4 5 6 6 5 6 3 2 8 8 6 5 4 5 4 5 4 7 7 6 6 7 8 3 5 6 8 8 8
3 2 2 2 4 3 5 5 5 5 4 7 6 4 3 2 1 4 3 2 4 4 5 5 4 5 7 7 8 6 6 6 7 11 14 11 10 8 5 4 5 5 6 5 7 10 8 8 7 7 7 8 9 8
Wind_Direction
300 301 301 302 306 310 309 311 312 313 308 312 310 319 320 313 316 339 267 218 216 272 282 299 38 78 27 56 118 258 48 346 35 45 70 288 97 257 76 283 144 136 118 163 80 97 229 338 354 105 227 307 187 177
296 294 296 302 306 308 309 314 310 307 312 308 308 312 310 306 303 323 282 332 100 204 249 279 301 97 128 176 132 13 162 198 174 81 6 43 4 34 134 264 336 35 166 176 154 208 214 302 136 201 192 219 306 167
295 295 298 299 305 308 313 309 307 310 306 300 300 304 304 296 280 242 271 292 316 260 299 28 210 17 61 81 152 116 305 161 76 166 164 179 38 121 132 245 106 326 131 115 80 142 175 235 252 204 191 163 207 160
294 296 295 299 305 308 308 309 310 311 307 296 293 293 288 281 269 233 234 245 24 271 235 280 87 77 111 72 92 128 149 49 111 86 107 110 180 150 201 188 134 199 112 137 26 319 223 259 256 265 192 77 104 124
289 291 297 299 305 307 310 306 310 311 314 305 293 288 280 271 269 260 229 234 218 186 256 264 352 121 116 89 80 75 83 100 87 56 86 224 224 85 342 64 301 185 181 151 213 207 167 221 216 236 321 83 120 134
280 289 290 297 304 304 309 311 317 315 311 303 297 289 274 268 296 313 319 239 204 188 271 178 270 138 118 87 82 76 75 101 105 131 207 244 228 104 99 179 268 271 186 162 187 155 209 267 208 234 229 295 158 153
284 286 289 295 301 304 306 312 315 313 308 302 291 279 276 277 167 194 204 192 111 129 207 335 55 262 130 95 18 37 17 122 112 137 219 160 273 89 110 185 226 218 186 148 132 110 40 197 220 251 252 253 160 140
281 286 291 293 303 306 303 314 314 308 312 300 293 288 286 279 276 293 242 240 148 183 110 157 243 64 111 106 323 175 109 25 344 180 29 119 1 72 241 241 267 202 155 147 171 180 195 194 164 218 235 282 153 144
278 286 288 290 300 304 309 317 314 310 317 299 291 294 330 139 234 240 157 137 195 133 180 96 143 203 88 161 190 10 94 83 297 151 233 103 219 211 218 195 185 125 171 191 215 225 269 192 203 200 228 111 135 155
270 282 285 289 296 308 316 320 319 314 315 304 307 73 278 223 301 42 2 31 12 315 76 204 173 182 118 131 205 96 47 195 151 241 91 122 242 235 199 193 184 164 184 149 162 209 166 159 177 167 152 121 129 140
274 281 286 283 298 315 313 320 320 320 312 356 349 273 279 302 45 40 223 133 243 280 220 215 168 164 266 131 194 183 183 181 139 258 135 258 268 240 181 182 189 182 185 187 161 193 215 168 184 155 112 116 110 108
276 279 281 291 297 305 310 323 330 351 39 335 278 279 293 5 20 176 197 240 169 210 223 173 201 174 246 118 110 214 152 75 233 174 112 261 253 254 163 177 189 181 172 175 168 172 200 160 143 119 123 122 119 118
280 278 286 290 289 292 304 303 320 298 300 174 89 4 30 326 251 205 210 222 196 218 201 155 173 158 15 66 90 115 139 221 71 143 223 222 231 190 163 156 167 179 165 158 147 111 118 118 112 126 133 132 126 118
288 289 288 284 281 278 280 288 315 335 312 74 112 22 228 247 234 212 198 210 236 196 168 126 124 153 188 99 148 126 220 109 239 215 228 219 198 182 169 156 133 169 164 162 142 133 128 126 126 127 136 143 133 135
295 284 285 284 262 249 249 274 313 297 316 182 181 215 219 252 292 274 260 280 327 290 88 60 67 108 158 136 173 144 171 211 215 222 217 209 181 163 156 157 161 167 177 172 155 152 147 141 134 123 127 126 111 106
294 292 235 247 273 152 185 283 269 235 296 227 230 258 258 265 286 294 357 357 338 322 24 82 172 138 201 173 159 200 192 196 244 223 213 140 152 162 162 168 178 178 180 181 163 172 162 147 142 136 121 114 113 110
291 261 136 168 117 133 117 301 326 221 220 256 240 231 256 259 261 280 6 299 289 61 44 63 225 189 142 172 215 189 205 209 215 160 139 147 159 165 150 140 139 132 125 126 119 140 145 111 127 126 128 145 124 113
261 58 83 122 141 132 141 276 274 231 235 240 237 260 258 262 258 174 233 280 70 71 37 60 286 257 179 163 211 224 181 193 87 153 158 140 137 138 140 134 127 127 126 126 127 127 128 146 154 137 135 141 135 140
44 341 22 144 335 300 186 207 222 262 236 234 237 243 229 234 244 215 147 247 135 128 95 88 243 239 241 128 154 188 70 172 150 130 108 90 85 71 76 115 115 115 125 130 127 133 138 144 139 142 144 140 145 188
254 255 247 211 79 272 234 212 210 243 256 232 215 216 215 214 205 201 146 138 126 149 125 202 251 300 106 305 16 169 125 122 92 68 70 88 121 131 160 173 138 128 110 106 108 113 116 104 117 147 148 148 154 190
166 205 172 180 207 219 271 243 206 238 258 242 229 187 238 203 216 230 255 141 175 157 186 200 216 199 110 53 332 96 13 68 153 165 205 178 186 146 134 140 122 118 121 131 134 146 130 167 186 181 171 182 165 220
178 144 134 179 251 211 243 227 233 221 215 233 214 189 210 186 195 205 165 169 207 205 184 208 218 197 143 158 196 191 174 189 206 221 152 124 142 150 158 165 140 144 151 162 159 163 192 208 205 196 181 210 162 153
172 169 224 182 231 242 258 243 235 237 240 249 121 185 242 246 230 116 174 212 213 211 193 212 244 170 182 182 194 243 184 165 149 194 212 155 130 127 166 161 149 156 162 186 167 168 201 204 201 188 162 166 143 172
198 233 222 199 200 257 252 232 215 240 258 280 265 226 200 202 315 87 232 236 230 128 138 184 355 76 58 66 225 230 199 106 100 101 142 139 145 165 186 171 158 164 179 157 157 197 199 191 173 154 152 154 166 170
222 244 185 257 216 240 248 231 209 215 249 253 302 241 68 11 54 240 230 275 182 183 186 140 67 113 151 169 203 200 145 157 159 162 226 145 138 138 165 168 173 185 162 141 187 183 183 162 155 154 158 169 176 184
237 230 176 246 221 208 283 315 305 237 356 258 251 117 90 103 226 281 287 265 282 200 226 196 137 82 49 212 175 180 189 128 132 152 201 177 162 167 166 157 173 244 188 184 168 172 184 185 169 178 186 188 189 188
254 248 211 225 216 265 283 263 259 211 212 248 159 140 162 177 130 212 273 262 237 251 160 122 125 78 245 258 232 101 125 153 155 169 159 175 169 168 158 155 178 221 178 152 184 175 180 191 182 181 178 184 201 179
253 272 227 258 263 249 243 255 258 356 343 307 93 86 290 138 212 237 237 248 181 187 218 149 153 170 168 187 172 142 109 107 75 84 64 50 90 151 178 193 180 185 169 144 130 150 164 173 159 150 170 200 219 202
245 254 250 273 252 252 218 263 67 195 264 289 356 53 189 229 240 233 299 261 185 77 87 104 105 126 84 67 75 114 129 134 114 127 142 157 147 255 202 135 134 149 156 159 115 156 167 145 144 182 185 155 190 154
247 195 220 276 243 261 114 230 2 347 326 253 166 207 344 284 252 215 240 110 103 126 140 133 134 111 112 110 80 38 23 154 154 144 129 113 298 218 186 173 173 175 154 149 136 117 97 130 101 113 167 210 212 181
284 17 236 216 93 272 224 185 223 237 231 148 35 52 289 281 312 309 121 147 140 112 92 87 83 151 136 124 132 115 273 288 66 161 154 165 199 184 200 196 169 143 149 155 148 132 126 132 180 201 207 191 209 191
202 201 272 312 54 281 100 204 69 357 344 60 35 13 357 16 2 329 336 85 82 108 161 158 192 233 203 158 179 169 168 117 97 116 117 106 106 117 133 124 132 146 146 153 146 154 166 200 227 197 196 179 169 172
207 299 288 264 202 189 220 203 145 145 50 18 351 357 324 314 302 268 312 93 142 143 127 151 147 114 107 106 109 102 87 87 80 92 91 94 91 84 95 115 114 112 124 133 156 173 163 189 210 209 195 165 156 176